Regional Weather Roundup
Issued by NWS Kansas City/Pleasant Hill, MO

Home | Current Version | Previous Version | Text Only | Print | Product List | Glossary On
Versions: 1 2 3 4 5 6 7 8 9 10 11 12 13 14 15 16 17 18 19 20 21 22 23 24 25 26 27 28 29 30 31 32 33 34 35 36 37 38 39 40 41 42 43 44 45 46 47 48 49 50
000
ASUS43 KEAX 221610
RWREAX

WEATHER ROUNDUP FOR EASTERN KANSAS AND NORTHWEST MISSOURI
NATIONAL WEATHER SERVICE KANSAS CITY/PLEASANT HILL MO
1100 AM CDT WED OCT 22 2014

KSZ040-057-103>105-MOZ028-029-037-043-221700-
...KANSAS CITY METROPOLITAN AREA...

CITY           SKY/WX    TMP DP  RH WIND       PRES   REMARKS
K.C. INTL      PTSUNNY   59  48  67 SE12      30.19S
K.C. DOWNTOWN  PTSUNNY   61  48  62 SE5       30.20S
LEES SUMMIT    CLOUDY    59  47  64 SE9       30.22S
OLATHE - IXD   MOSUNNY   63  49  60 SE12      30.20R
OLATHE - OJC   SUNNY     60  49  66 SE13      30.19S
LAWRENCE       MOSUNNY   64  50  60 SE10      30.18S

$$

MOZ001>008-011>017-020>025-030>033-038>040-044>046-053-054-221700-
...NORTHERN AND CENTRAL MISSOURI...

CITY           SKY/WX    TMP DP  RH WIND       PRES   REMARKS
ST. JOSEPH     MOSUNNY   60  47  61 SE12      30.18F
MOSBY          MOSUNNY   59  46  63 SE8       30.22S
WHITEMAN AFB   SUNNY     60  47  63 S10       30.23F
CLINTON        CLOUDY    59  48  67 SE10      30.24F
SEDALIA        SUNNY     61  47  59 SE8       30.26F
WARSAW         NOT AVBL
MARSHALL       SUNNY     61  48  63 SE10      30.26S
CHILLICOTHE      N/A     58  46  64 SE9       30.26S
MOBERLY        SUNNY     57  43  58 S9        30.29S
KIRKSVILLE     SUNNY     54  46  74 SE13      30.29S

$$

MOZ041-047>049-056>058-063>065-088>090-097-221700-
...EASTERN AND SOUTHERN MISSOURI...

CITY           SKY/WX    TMP DP  RH WIND       PRES   REMARKS
ST. LOUIS INTL SUNNY     54  43  66 SE7       30.33S
SPIRIT OF STL  SUNNY    N/A N/A N/A SE6       30.32S
COLUMBIA       SUNNY     55  44  66 SE9       30.29S
JEFFERSON CITY SUNNY     56  42  59 SE8       30.30S
MEXICO         SUNNY     57  48  72 SE7       30.31S
HANNIBAL       SUNNY     59  39  47 SE7       30.31F
ROLLA          SUNNY     55  43  63 SE8       30.28R
LEBANON        SUNNY     59  45  58 S8        30.28S
OSAGE BEACH    SUNNY     57  43  58 S7        30.28F
SPRINGFIELD    SUNNY     60  46  59 S15       30.25S
BRANSON        MOSUNNY   61  46  59 E9        30.29R
NEVADA         MOSUNNY   64  50  59 SE8       30.23R
JOPLIN         MOSUNNY   65  52  62 SE9       30.21S
WEST PLAINS    MOSUNNY   56  42  59 SE6       30.30S

$$

IAZ060-094-KSZ022-034>040-054-083-096-NEZ052-066-093-221700-
...KANSAS...SOUTHEAST NEBRASKA AND IOWA...

CITY           SKY/WX    TMP DP  RH WIND       PRES   REMARKS
TOPEKA         SUNNY     66  54  65 SE10      30.16S
MANHATTAN      SUNNY     73  56  54 S12       30.11S
EMPORIA        SUNNY     65  58  78 S12       30.16R
CHANUTE        PTSUNNY   65  57  75 S8        30.19S
WICHITA        MOSUNNY   72  56  57 S16       30.13S
OMAHA          MOSUNNY   63  46  54 S18       30.10F
LINCOLN        SUNNY     67  51  56 S15       30.08S
FALLS CITY     SUNNY     64  50  60 SE13G22   30.14S
LAMONI         CLOUDY    54  43  66 SE13      30.22F
DES MOINES     CLOUDY    54  42  64 SE18      30.22F

$$




USA.gov is the U.S. government's official web portal to all federal, state and local government web resources and services.